Weather Roundup
Issued by NWS

Home | Current Version | Previous Version | Graphics & Text | Print | Product List | Glossary Off
Versions: 1 2 3 4 5 6 7 8 9 10 11 12 13 14 15 16 17 18 19 20 21 22 23 24 25 26 27 28 29 30 31 32 33 34 35 36 37 38 39 40 41 42 43 44 45 46 47 48 49 50

000
NZUS93 KARX 050559
HRRWXR

CURRENT HOURLY OBSERVATIONS ACROSS
MUCH OF THE UPPER MISSISSIPPI VALLEY
NATIONAL WEATHER SERVICE LA CROSSE WI
1200 AM CST MON DEC 05 2016


...SOUTHEAST MINNESOTA...


CITY           SKY/WX    TMP DP  RH WIND       PRES   REMARKS
ROCHESTER      CLOUDY    32  32 100 SW12      29.81S FOG     WCI  23
ROCHESTER/MAYO FAIR      33  33 100 SW6       29.81F WCI  28
WINONA         PTCLDY    36  34  93 W3        29.82F
AUSTIN         NOT AVBL
ALBERT LEA     CLEAR     36  36 100 SW8       29.82S WCI  29
DODGE CENTER   PTCLDY    30  28  93 SW8       29.80F WCI  23
PRESTON        CLOUDY    32  32  98 SW9       29.83S FOG     WCI  24
OWATONNA       CLEAR     30  28  93 S5        29.81S WCI  25
FARIBAULT      CLEAR     30  30 100 S5        29.81S WCI  25
$$

...ELSEWHERE IN MINNESOTA...


CITY           SKY/WX    TMP DP  RH WIND       PRES   REMARKS
MINNEAPOLIS    CLEAR     33  28  81 SW7       29.79R WCI  27
INTNL FALLS    CLOUDY    30  27  88 W5        29.61S FOG     WCI  25
DULUTH         CLOUDY    31  29  92 W12       29.64S WCI  22
RED WING       CLEAR     34  30  86 W3        29.79F
REDWOOD FALLS  CLEAR     30  26  85 S7        29.77F WCI  23
MANKATO        CLEAR     31  30  96 S6        29.81S WCI  25
WORTHINGTON    CLEAR     32  29  88 S9        29.80S WCI  24
FAIRMONT       CLEAR     33  30  88 SW10      29.81F WCI  25
$$

...SOUTHWEST WISCONSIN...


CITY           SKY/WX    TMP DP  RH WIND       PRES   REMARKS
LA CROSSE      CLOUDY    36  33  89 S7        29.84S WCI  30
PRAIRIE DU CHI CLOUDY    33  31  93 SW8       29.90R WCI  26
BOSCOBEL       CLOUDY    34  31  88 SW9G17    29.91R WCI  27
LONE ROCK      NOT AVBL
PLATTEVILLE    CLOUDY    32  32 100 SW12      29.92R WCI  23
FORT MC COY    CLOUDY    33  32  96 W3        29.83F
MAUSTON-NEW LI CLOUDY    34  32  90 SW8       29.82S FOG     WCI  28
VIROQUA        CLOUDY    32  32 100 SW14      29.83F WCI  22
WIS DELLS      CLOUDY    32  30  92 W10       29.85R WCI  24
$$

...ELSEWHERE IN WISCONSIN...


CITY           SKY/WX    TMP DP  RH WIND       PRES   REMARKS
MILWAUKEE      CLOUDY    34  29  82 W9        29.88R WCI  27
MADISON        CLOUDY    34  30  85 SW7       29.88R WCI  28
GREEN BAY      CLOUDY    34  32  92 SW9       29.80S WCI  27
EAU CLAIRE     CLOUDY    35  31  85 SW8       29.78R WCI  29
BLACK RVR FLS  CLOUDY    33  33 100 SW3       29.81S FOG
MEDFORD        CLOUDY    32  31  94 W12G17    29.74R WCI  23
WAUSAU         CLOUDY    32  31  96 SW12      29.75R WCI  23
WIS RAPIDS     CLOUDY    33  32  96 W8        29.80S WCI  26
MARSHFIELD     CLOUDY    33  31  92 W13       29.76S WCI  24
RICE LAKE      CLOUDY    34  30  84 SW7       29.76S WCI  28
$$

...NORTHEAST IOWA...


CITY           SKY/WX    TMP DP  RH WIND       PRES   REMARKS
WATERLOO       PTCLDY    32  30  92 SW9       29.90S FOG     WCI  24
DUBUQUE        CLOUDY    31  30  96 SW13      29.91F FOG     WCI  21
DECORAH        FOG       32  32 100 SW9G16    29.86R VSB 3/4 WCI  24
MASON CITY     CLEAR     32  31  96 SW10      29.86F WCI  24
CHARLES CITY   CLOUDY    32  32 100 SW9       29.87S FOG     WCI  24
OELWEIN        CLOUDY    34  34 100 SW13      29.90S FOG     WCI  25
$$

...ELSEWHERE IN IOWA...


CITY           SKY/WX    TMP DP  RH WIND       PRES   REMARKS
DES MOINES     CLEAR     31  29  92 S7        29.92F FOG     WCI  24
IOWA CITY      CLOUDY    35  32  88 SW8       29.98S WCI  29
FORT DODGE     CLEAR     30  27  86 SW5       29.87S WCI  25
MARSHALLTOWN   CLEAR     31  31 100 SW8       29.90F FOG     WCI  23
CEDAR RAPIDS   CLOUDY    34  34 100 SW12      29.94R WCI  25
$$

...NORTHERN ILLINOIS...


CITY           SKY/WX    TMP DP  RH WIND       PRES   REMARKS
CHICAGO-OHARE  CLOUDY    32  31  96 W10       29.92R FOG     WCI  24
CHICAGO-MIDWAY CLOUDY    33  30  88 W10       29.93S FOG     WCI  25
MOLINE         CLOUDY    35  31  85 W10       29.97R WCI  27
ROCKFORD       CLOUDY    34  30  85 W14       29.95R FOG     WCI  25
PEORIA         CLOUDY    34  32  92 W9        30.00R WCI  27
$$

NOTE: "FAIR" INDICATES FEW OR NO CLOUDS BELOW 12,000 FEET WITH NO
SIGNIFICANT WEATHER AND/OR OBSTRUCTIONS TO VISIBILITY. WIND
SPEEDS ARE IN MILES-PER-HOUR.




USA.gov is the U.S. government's official web portal to all federal, state and local government web resources and services.